SCP
1 1 0 0 0 0 0 0 0 0 0 0 0 0 0 0 0 0 0 0 0 0 0 1 1 1 1 1 1 1 1 1 1 1 1 1 1 1 0 1 1 1 1 2 1 1 1 1 1
1 1 0 0 0 0 0 0 0 0 0 0 0 0 0 0 0 0 0 0 0 0 0 1 1 1 1 1 1 1 1 1 1 1 1 1 1 1 0 1 1 1 1 1 1 1 1 1 1
1 0 0 0 0 0 0 0 0 0 0 0 0 0 0 0 0 0 0 0 0 0 0 1 1 1 1 1 1 1 1 1 0 0 0 0 0 0 0 1 1 1 1 1 1 1 1 1 1
0 0 0 0 0 0 0 0 0 0 0 0 0 0 0 0 0 0 0 0 0 0 0 0 1 0 0 0 1 1 1 0 0 0 1 1 0 0 0 1 0 0 0 1 1 1 1 1 1
0 0 0 0 0 0 0 0 0 0 0 0 0 0 0 0 0 0 0 0 0 0 0 0 0 0 0 1 1 1 1 0 0 1 1 1 0 0 1 1 1 0 0 0 1 1 1 1 1
0 0 0 0 0 0 0 0 0 0 0 0 0 0 0 0 0 0 0 0 0 0 0 0 0 0 1 1 1 1 1 1 1 1 1 1 0 0 1 1 1 0 1 1 1 1 1 1 1
0 0 0 0 0 0 0 0 0 0 0 0 0 0 0 0 0 0 0 0 0 0 0 0 0 0 1 1 1 1 1 1 1 1 1 1 0 0 0 0 0 0 1 1 1 1 1 1 1
0 0 0 0 0 0 0 0 0 0 0 0 0 0 0 0 0 0 0 0 0 0 0 0 0 1 1 1 1 1 1 1 1 1 1 0 0 0 0 0 0 0 0 1 1 1 1 1 0
0 0 0 0 0 0 0 0 0 0 0 0 0 0 0 0 0 0 0 0 0 0 0 0 1 1 1 1 1 1 1 1 1 1 0 0 0 0 0 0 0 0 0 0 0 0 0 0 0
0 0 0 0 0 0 0 0 0 0 0 0 0 1 1 1 0 0 0 0 0 0 0 0 1 1 1 1 1 1 1 1 1 0 0 0 0 0 0 0 0 0 0 0 0 0 0 0 0
0 0 0 0 0 0 0 0 0 0 0 0 0 1 1 1 0 0 0 0 0 0 0 0 1 1 1 1 1 1 1 1 1 0 0 0 0 0 0 0 0 0 0 0 0 0 0 0 0
0 0 0 0 0 0 0 0 0 0 0 0 0 1 1 1 1 0 0 0 0 0 0 0 1 1 1 1 1 1 1 1 1 0 0 0 0 0 0 0 0 0 0 0 0 0 0 0 0
0 0 0 0 0 0 0 0 0 0 0 0 1 1 1 1 0 0 0 0 0 0 0 0 1 1 1 1 1 1 1 0 0 0 0 0 0 0 0 0 0 0 0 0 0 0 0 0 0
0 0 0 0 0 0 0 0 0 0 0 0 1 1 1 1 0 0 0 0 0 0 0 0 0 1 1 1 1 0 0 0 0 0 0 0 0 0 0 0 0 0 0 0 0 0 0 0 0
0 0 0 0 0 0 0 0 0 0 0 0 1 1 1 0 0 0 0 0 0 0 0 0 0 1 1 1 1 0 0 0 0 0 0 0 0 0 0 0 0 0 0 0 0 0 0 0 0
0 0 0 0 0 0 0 0 0 0 0 0 0 0 0 0 0 0 0 0 0 0 0 0 0 0 1 1 1 1 0 0 0 0 0 0 0 0 0 0 0 0 0 0 0 0 0 0 0
0 0 0 0 0 0 0 0 0 0 0 0 0 0 0 0 0 0 0 1 0 0 0 0 0 0 0 1 1 1 1 0 0 0 1 0 0 0 0 0 0 0 0 0 0 0 0 0 0
0 0 0 0 0 0 0 0 0 0 0 0 0 0 0 0 0 0 0 1 1 0 0 0 0 0 0 0 1 1 1 0 1 1 1 1 0 0 0 0 0 0 0 0 0 0 0 0 0
0 0 0 0 0 0 0 0 0 0 0 0 0 0 0 0 0 0 0 1 1 1 0 0 0 0 0 0 0 1 1 1 1 1 1 1 1 0 0 0 0 0 0 0 0 0 0 0 0
0 0 0 0 0 0 0 0 0 0 0 0 0 0 0 0 0 0 0 0 1 1 0 0 0 0 0 0 0 0 1 0 1 1 1 1 1 1 1 0 0 0 0 0 0 0 0 0 0
0 0 0 0 0 0 0 0 0 0 0 0 0 0 0 0 0 0 0 1 1 1 1 0 0 0 0 0 0 0 0 0 0 0 1 1 1 1 1 0 0 0 0 0 0 0 0 0 0
0 0 0 0 0 0 0 0 0 0 0 0 0 0 0 0 0 0 1 1 1 1 1 0 0 0 0 0 0 0 0 0 0 0 0 0 0 0 0 0 0 0 0 0 0 0 0 0 0
0 0 0 0 0 0 0 0 0 0 0 0 0 0 0 0 0 1 1 1 1 1 1 1 0 0 0 0 0 0 0 0 0 0 0 0 0 0 0 0 0 0 0 0 0 0 0 0 0
0 0 0 0 0 0 0 0 0 0 0 0 0 0 0 0 0 0 1 1 1 1 1 1 1 0 0 0 0 0 0 0 0 0 0 0 0 0 0 0 0 0 0 0 0 0 0 0 0
0 0 0 0 0 0 0 0 0 0 0 0 0 0 0 0 0 0 1 1 1 1 1 1 1 1 1 0 0 0 0 0 0 0 0 1 1 1 1 0 0 0 0 0 0 0 0 0 0
0 0 0 0 0 0 0 0 0 0 0 0 0 0 0 0 0 0 0 1 1 1 2 1 1 1 1 1 0 0 0 0 0 0 0 1 1 1 1 1 1 0 0 0 0 0 0 0 0
0 0 0 0 0 0 0 0 0 0 0 0 0 0 0 0 0 0 0 0 1 1 1 2 1 1 1 1 1 1 0 0 0 0 0 0 0 1 1 1 1 1 1 0 0 0 0 0 0
0 0 0 0 0 0 0 0 0 0 0 0 0 0 0 0 0 0 0 0 0 0 1 1 2 2 1 2 1 1 1 0 0 0 0 0 0 0 0 1 1 1 1 0 0 0 0 0 0
0 0 0 0 0 0 0 0 0 0 0 0 0 0 0 0 0 0 0 0 0 0 0 1 1 1 1 1 2 2 1 1 0 0 0 0 0 0 0 0 0 1 0 0 0 0 0 0 0
0 0 0 0 0 0 0 0 0 0 0 0 0 0 0 0 0 0 0 0 0 0 0 0 1 1 1 1 2 2 2 1 1 0 0 0 0 0 0 0 0 0 0 0 0 0 0 0 0
Wind_Speed
2 3 3 4 7 7 3 2 1 1 3 2 4 6 6 4 3 3 1 1 2 1 1 2 5 7 8 9 9 9 10 10 11 11 11 12 12 12 12 10 10 10 10 10 10 9 9 9 8
1 2 5 6 7 4 2 2 1 1 4 4 5 5 5 4 2 3 0 1 2 2 2 2 5 6 7 8 9 9 10 10 10 11 11 11 11 11 12 12 11 11 10 10 10 10 10 10 10
2 4 5 6 5 3 2 0 2 3 3 2 4 4 4 2 2 2 1 3 3 3 2 2 5 6 7 8 9 9 9 10 10 10 11 11 11 11 11 11 11 11 11 11 11 11 10 10 10
3 5 6 7 4 0 2 2 3 4 3 4 4 4 3 2 1 3 4 5 4 3 2 2 5 6 7 8 8 8 9 9 10 10 10 10 10 11 11 11 11 11 11 11 10 10 10 10 9
5 5 7 4 2 1 1 1 1 3 3 3 3 4 3 4 4 6 5 5 4 3 2 2 5 6 7 8 8 8 9 9 9 10 10 10 10 10 10 10 10 10 10 10 10 9 9 9 9
5 6 6 2 1 2 1 1 3 4 4 3 4 4 2 1 3 4 5 4 3 3 3 3 4 6 7 7 8 8 8 8 9 9 9 9 9 10 10 10 10 10 10 10 9 9 9 9 9
5 5 4 3 1 1 0 1 3 4 3 2 4 4 2 1 2 4 4 4 4 3 3 3 3 4 6 7 7 8 8 8 8 8 8 9 9 10 10 10 10 10 9 9 10 10 9 9 9
4 5 3 2 2 0 0 2 2 3 3 2 3 5 4 3 3 5 5 5 4 4 3 3 3 4 4 4 6 7 8 8 8 8 9 9 9 10 10 9 9 9 10 10 10 10 10 10 9
4 6 2 3 4 1 1 3 2 2 4 3 2 2 3 7 7 6 5 4 3 3 3 3 3 3 3 3 5 6 7 8 8 7 9 8 5 5 6 8 10 10 10 10 10 10 10 10 9
5 4 2 2 4 3 2 3 2 3 4 3 4 5 7 8 7 6 4 3 2 1 1 2 2 2 2 3 3 3 4 4 5 4 5 4 4 4 6 8 10 10 10 10 10 11 10 7 4
4 3 1 1 2 3 3 3 3 6 2 2 5 7 7 7 6 5 4 3 2 2 1 1 1 2 2 2 2 2 2 3 3 4 4 3 3 3 4 3 5 6 7 5 6 6 4 4 3
4 2 1 1 2 3 3 3 4 3 1 2 5 8 8 7 6 5 4 3 2 2 1 1 1 2 2 2 2 2 2 2 2 3 3 3 2 3 3 3 3 3 3 3 3 3 4 4 4
3 1 2 3 5 5 6 4 3 2 3 4 7 8 7 6 4 2 2 2 2 2 1 1 1 2 1 2 1 2 2 2 2 2 3 3 2 3 3 3 3 3 3 3 3 3 4 4 4
2 3 3 3 4 3 6 3 3 1 3 6 7 6 5 4 4 3 2 2 1 1 1 1 1 1 2 2 1 1 1 1 2 2 2 3 2 2 2 3 3 3 3 3 3 3 3 3 3
4 4 4 3 2 1 4 4 1 0 4 5 4 4 3 2 3 2 2 2 1 1 1 1 2 2 2 2 2 1 1 1 1 1 2 2 2 2 2 2 2 2 3 3 3 3 3 3 3
4 4 2 3 1 1 4 1 3 1 5 4 3 2 2 1 1 1 1 1 1 2 1 1 1 2 2 2 2 1 1 1 1 1 1 2 3 3 2 2 2 2 2 2 3 3 3 3 3
3 2 1 2 1 2 3 2 2 2 5 4 2 2 1 0 1 0 1 1 2 2 2 1 1 1 2 2 2 2 2 1 1 1 1 2 2 2 2 2 2 2 2 2 2 3 2 2 3
3 2 1 2 1 3 3 2 2 2 4 4 2 1 1 1 3 1 1 1 2 2 2 2 2 2 2 2 2 2 2 1 1 1 1 1 1 2 2 2 2 2 2 2 2 2 3 2 2
4 4 2 3 2 3 2 2 3 1 3 3 2 2 3 3 2 0 1 2 2 2 3 2 2 1 2 2 1 1 1 1 1 1 1 1 1 1 2 1 1 1 1 1 2 2 2 2 2
3 3 2 1 1 3 2 2 3 1 3 5 5 5 5 3 0 0 1 2 2 2 2 2 2 1 1 2 1 1 1 1 0 1 1 1 1 1 1 1 1 1 1 2 2 2 1 1 2
2 4 4 3 1 2 1 3 3 2 0 1 2 3 4 4 3 2 2 2 2 2 2 2 2 2 2 2 3 3 3 2 2 2 1 1 1 1 1 1 1 1 1 1 0 1 1 0 1
3 4 5 4 3 1 1 3 5 3 1 2 3 3 4 4 4 3 3 3 3 3 2 2 2 2 2 3 4 4 2 1 1 1 1 1 1 1 1 1 1 1 1 1 0 1 1 1 0
3 1 3 3 3 1 1 1 7 2 3 4 4 4 4 4 5 5 5 5 4 3 2 2 2 2 2 2 3 3 2 1 0 0 1 1 1 1 1 1 1 1 1 0 0 0 1 1 1
3 5 5 4 4 1 3 3 6 3 5 4 4 3 3 3 4 4 3 3 2 2 2 2 2 2 2 2 2 3 2 1 1 0 0 1 1 1 1 0 0 0 0 1 1 1 1 1 1
4 5 3 3 2 4 2 3 7 5 4 5 4 4 2 3 3 3 3 3 2 2 2 2 3 2 2 2 2 2 2 2 2 2 2 1 1 1 2 1 1 1 1 1 1 0 1 1 1
3 7 6 4 4 3 1 5 6 4 3 2 2 2 2 2 3 3 4 4 3 3 3 3 3 2 2 2 2 2 2 2 2 2 2 2 2 2 1 1 1 1 1 1 0 0 1 1 1
5 3 4 5 2 1 4 4 6 2 2 1 2 2 2 3 3 3 3 3 3 3 4 4 4 3 2 2 2 1 1 1 1 1 1 1 1 1 1 2 1 1 1 1 1 1 1 1 1
4 7 5 4 3 3 4 4 5 4 3 1 1 2 2 2 2 2 2 2 2 2 2 3 4 4 3 2 2 1 1 1 1 0 1 1 1 1 1 1 1 1 1 0 0 1 1 1 1
2 3 4 4 4 5 3 6 5 5 5 4 5 4 4 4 3 3 2 2 2 2 2 1 2 2 1 2 2 1 1 1 0 1 1 1 1 1 1 1 1 1 1 1 0 1 1 1 2
3 4 5 4 3 4 3 7 3 3 3 3 4 3 3 3 3 2 2 2 1 1 1 1 1 1 1 2 2 2 1 1 1 1 1 1 1 1 1 1 1 1 1 1 1 1 1 1 2
Wind_Direction
11 64 73 56 54 51 52 6 28 44 56 45 61 78 90 80 84 113 285 114 113 103 48 70 73 76 79 78 77 73 71 71 69 70 70 70 68 68 69 74 76 75 74 76 77 75 73 67 70
53 75 54 57 75 67 8 346 50 76 138 133 72 70 72 65 69 104 86 143 109 99 66 77 82 82 81 80 77 73 72 72 72 71 72 72 71 69 68 67 70 69 71 72 73 71 72 68 70
84 56 72 66 81 127 138 17 108 86 103 88 74 59 72 75 102 142 164 136 96 76 58 81 88 85 83 81 79 76 75 74 73 70 71 71 71 70 68 66 64 64 64 65 66 66 67 68 71
74 46 54 67 78 168 168 171 140 118 72 52 89 68 55 27 128 137 118 113 95 72 58 88 93 87 82 80 79 77 74 74 73 71 70 71 71 71 68 66 65 64 64 63 61 61 62 65 70
60 69 62 56 41 356 19 138 124 105 85 59 87 90 47 7 80 106 111 108 107 85 59 81 93 91 86 81 79 76 73 73 73 72 71 71 70 71 68 65 63 62 61 61 60 59 61 64 69
59 65 79 79 32 4 6 64 101 89 96 93 95 97 63 37 102 115 112 108 100 88 67 67 89 88 86 84 82 78 75 73 72 70 70 70 67 66 65 63 60 59 57 58 59 59 61 63 67
92 86 107 124 101 30 82 79 108 115 105 121 124 105 101 121 136 115 100 92 81 72 63 48 47 63 76 79 76 75 73 71 69 66 65 65 62 59 59 57 56 55 55 57 59 58 61 61 64
111 97 88 105 128 195 131 90 88 104 114 107 109 130 166 185 133 102 84 74 71 63 54 49 43 44 46 55 68 69 67 66 66 62 61 59 56 53 51 50 51 52 53 56 58 58 59 60 61
82 79 122 177 164 178 99 93 59 62 90 72 69 134 153 131 117 101 81 62 59 60 44 48 51 47 46 51 60 60 61 56 57 55 58 53 43 41 43 45 49 50 51 52 54 53 55 56 54
77 109 194 194 167 147 111 106 124 88 72 58 55 67 101 116 121 121 119 117 108 85 52 52 58 50 48 56 52 45 45 42 46 47 46 46 44 40 44 43 48 49 48 48 48 47 46 45 39
92 139 171 89 136 126 107 77 74 112 99 184 159 141 125 123 128 137 141 148 168 166 138 104 81 60 61 56 58 46 42 41 45 47 50 50 44 38 36 34 33 36 41 38 36 37 30 32 34
95 57 112 107 98 95 102 98 74 86 202 182 149 139 132 139 152 162 161 161 147 122 117 95 88 80 67 63 60 59 50 44 42 41 50 56 49 40 35 37 28 31 32 31 29 33 32 32 34
84 66 51 80 81 95 88 75 92 33 19 83 104 115 130 143 148 141 133 130 118 123 136 124 99 111 101 79 63 70 59 53 50 50 49 59 65 52 41 37 36 32 32 34 32 35 34 31 32
115 86 56 57 74 74 97 70 76 360 66 91 106 126 137 140 133 99 88 105 131 140 163 151 126 137 128 113 96 86 77 65 54 50 49 60 68 65 54 44 38 31 30 32 38 39 38 31 35
92 75 38 23 57 92 96 46 21 238 106 104 117 126 119 114 112 130 149 145 151 151 137 135 146 118 140 138 122 102 94 84 67 52 50 61 68 69 67 58 41 25 29 39 45 40 38 38 35
67 64 45 322 34 105 114 198 283 133 126 128 140 127 118 109 129 140 127 114 117 108 109 130 146 129 132 141 134 115 102 91 74 67 61 67 71 77 76 65 45 30 37 41 47 41 38 31 27
45 99 204 293 342 114 126 205 268 134 141 150 159 157 154 125 0 324 103 119 120 124 129 112 81 121 130 123 125 119 100 87 76 71 67 69 70 76 84 75 51 49 49 41 46 39 40 32 20
198 174 194 224 261 117 132 222 280 144 154 172 185 181 178 202 236 223 157 122 107 102 101 99 79 73 94 93 88 85 77 64 61 66 61 78 80 85 88 79 59 61 60 41 40 43 35 35 14
151 154 192 231 203 134 166 235 271 192 159 180 201 206 212 230 249 192 127 108 95 87 86 96 87 76 101 97 110 123 126 62 39 37 56 78 89 95 105 87 72 63 75 70 61 60 40 24 12
138 146 196 274 142 149 173 265 267 207 199 200 199 202 212 230 347 67 112 112 131 132 126 113 113 108 122 126 131 133 131 118 106 26 35 52 89 95 102 112 108 93 89 69 60 68 51 16 20
181 179 192 193 80 80 113 310 293 281 247 212 205 204 201 199 197 191 177 182 158 157 169 161 159 136 102 102 90 65 52 35 27 18 11 358 71 97 95 112 124 118 124 139 113 102 98 50 358
236 216 177 160 135 257 162 278 288 259 287 259 234 216 217 211 195 187 187 189 192 199 180 157 154 132 112 107 114 115 111 129 249 253 278 337 20 56 81 106 121 125 133 169 200 93 130 132 323
211 142 136 141 141 67 20 193 287 297 262 261 242 222 221 210 198 196 196 196 194 178 161 149 136 125 117 122 130 133 130 154 337 24 30 355 340 349 22 102 124 149 168 204 206 152 157 164 182
130 80 62 55 77 293 233 179 281 250 232 251 242 233 229 210 200 199 192 174 165 140 136 130 128 130 126 130 139 146 146 137 106 25 298 294 299 309 325 40 135 206 199 225 246 219 198 207 210
91 92 43 4 6 252 209 188 249 253 236 224 222 224 224 199 186 181 175 167 166 157 159 154 145 156 153 147 159 176 179 179 191 216 227 226 244 259 275 278 250 251 247 235 235 221 244 219 219
166 141 154 195 222 272 234 227 251 263 275 254 200 177 151 153 171 182 189 182 180 180 173 168 172 184 175 172 189 186 183 193 214 228 233 228 229 236 256 260 251 252 241 240 216 227 262 260 245
146 176 163 136 154 246 267 276 296 312 337 32 95 107 146 175 175 180 180 179 177 178 184 183 180 184 182 188 186 171 180 203 224 238 241 248 248 247 241 241 248 254 246 228 195 235 258 266 254
135 143 106 123 158 248 280 265 256 269 267 280 201 188 198 177 171 183 182 182 181 178 182 177 178 188 190 180 180 172 201 218 219 202 255 274 285 280 244 249 261 268 273 253 199 264 273 267 270
95 110 119 132 157 166 245 266 232 228 224 218 224 214 198 188 191 201 199 180 154 126 112 134 164 166 176 184 172 154 186 194 149 206 246 251 274 278 226 227 244 268 279 275 238 264 278 269 279
162 164 146 160 213 180 189 264 283 245 237 222 232 226 206 192 189 192 186 144 120 117 112 112 125 151 195 187 160 166 183 139 141 242 263 252 251 267 255 230 237 254 271 256 245 268 286 265 278